Time,TemperatureF,DewpointF,PressureIn,WindDirection,WindDirectionDegrees,WindSpeedMPH,WindSpeedGustMPH,Humidity,HourlyPrecipIn,Conditions,Clouds,dailyrainin,SolarRadiationWatts/m^2,SoftwareType,DateUTC
2013-07-04 00:00:00,72.0,72.0,-100.00,NNE,25,0.0,-999.0,98,-99.99,,,-99.99,0.000000,,2013-07-04 05:00:00,
2013-07-04 03:00:00,72.0,72.0,-100.00,NE,34,0.0,-999.0,99,-99.99,,,-99.99,0.000000,,2013-07-04 08:00:00,
2013-07-04 04:00:00,72.0,72.0,-100.00,NNE,14,0.0,-999.0,99,-99.99,,,-99.99,0.000000,,2013-07-04 09:00:00,
2013-07-04 04:52:00,72.0,72.0,-100.00,NNE,14,0.0,-999.0,99,-99.99,,,-99.99,0.000000,,2013-07-04 09:52:00,
2013-07-04 05:00:00,71.0,71.0,-100.00,NNE,30,0.0,-999.0,99,-99.99,,,-99.99,0.000000,,2013-07-04 10:00:00,
2013-07-04 06:00:00,70.0,70.0,-100.00,East,97,0.0,-999.0,99,-99.99,,,-99.99,0.170000,,2013-07-04 11:00:00,
2013-07-04 06:53:00,70.0,70.0,-100.00,East,97,0.0,-999.0,99,-99.99,,,-99.99,0.170000,,2013-07-04 11:53:00,
2013-07-04 07:00:00,72.0,72.0,-100.00,NNE,17,0.0,-999.0,99,-99.99,,,-99.99,29.650000,,2013-07-04 12:00:00,
2013-07-04 08:00:00,73.0,73.0,-100.00,NNE,24,1.0,-999.0,99,-99.99,,,-99.99,85.599998,,2013-07-04 13:00:00,
2013-07-04 08:53:00,73.0,73.0,-100.00,NNE,24,1.0,-999.0,99,-99.99,,,-99.99,85.599998,,2013-07-04 13:53:00,
2013-07-04 09:00:00,74.0,74.0,-100.00,NNE,27,1.0,-999.0,98,-99.99,,,-99.99,175.089996,,2013-07-04 14:00:00,
2013-07-04 10:00:00,78.0,74.0,-100.00,NNE,13,0.0,-999.0,89,-99.99,,,-99.99,238.259995,,2013-07-04 15:00:00,
2013-07-04 11:00:00,82.0,74.0,-100.00,NNE,22,1.0,-999.0,78,-99.99,,,-99.99,463.790009,,2013-07-04 16:00:00,
2013-07-04 12:00:00,84.0,73.0,-100.00,North,360,1.0,-999.0,70,-99.99,,,-99.99,613.890015,,2013-07-04 17:00:00,
2013-07-04 13:00:00,88.0,73.0,-100.00,North,351,2.0,-999.0,63,-99.99,,,-99.99,766.650024,,2013-07-04 18:00:00,
2013-07-04 13:52:00,88.0,73.0,-100.00,North,351,2.0,-999.0,63,-99.99,,,-99.99,766.650024,,2013-07-04 18:52:00,
2013-07-04 14:00:00,88.0,71.0,-100.00,WNW,285,2.0,-999.0,57,-99.99,,,-99.99,838.849976,,2013-07-04 19:00:00,
2013-07-04 14:53:00,88.0,71.0,-100.00,WNW,285,2.0,-999.0,57,-99.99,,,-99.99,838.849976,,2013-07-04 19:53:00,
2013-07-04 15:00:00,85.0,76.0,-100.00,SSW,213,4.0,-999.0,75,-99.99,,,-99.99,274.739990,,2013-07-04 20:00:00,
2013-07-04 16:00:00,87.0,75.0,-100.00,SSW,207,4.0,-999.0,67,-99.99,,,-99.99,363.950012,,2013-07-04 21:00:00,
2013-07-04 16:53:00,87.0,75.0,-100.00,SSW,207,4.0,-999.0,67,-99.99,,,-99.99,363.950012,,2013-07-04 21:53:00,
2013-07-04 17:00:00,84.0,74.0,-100.00,South,172,7.0,-999.0,72,-99.99,,,-99.99,457.049988,,2013-07-04 22:00:00,
2013-07-04 18:00:00,84.0,74.0,-100.00,SSE,166,5.0,-999.0,71,-99.99,,,-99.99,284.140015,,2013-07-04 23:00:00,
2013-07-04 18:52:00,84.0,74.0,-100.00,SSE,166,5.0,-999.0,71,-99.99,,,-99.99,284.140015,,2013-07-04 23:52:00,
2013-07-04 19:00:00,81.0,74.0,-100.00,SSE,158,5.0,-999.0,79,-99.99,,,-99.99,101.559998,,2013-07-05 00:00:00,
2013-07-04 19:52:00,81.0,74.0,-100.00,SSE,158,5.0,-999.0,79,-99.99,,,-99.99,101.559998,,2013-07-05 00:52:00,
2013-07-04 20:00:00,80.0,74.0,-100.00,SSE,161,3.0,-999.0,82,-99.99,,,-99.99,11.530000,,2013-07-05 01:00:00,
2013-07-04 20:52:00,80.0,74.0,-100.00,SSE,161,3.0,-999.0,82,-99.99,,,-99.99,11.530000,,2013-07-05 01:52:00,
2013-07-04 21:00:00,80.0,75.0,-100.00,SSE,157,5.0,-999.0,84,-99.99,,,-99.99,0.220000,,2013-07-05 02:00:00,
2013-07-04 21:52:00,80.0,75.0,-100.00,SSE,157,5.0,-999.0,84,-99.99,,,-99.99,0.220000,,2013-07-05 02:52:00,
2013-07-04 22:00:00,80.0,74.0,-100.00,SSE,157,5.0,-999.0,81,-99.99,,,-99.99,0.000000,,2013-07-05 03:00:00,
2013-07-04 23:00:00,81.0,74.0,-100.00,SSE,164,6.0,-999.0,79,-99.99,,,-99.99,0.000000,,2013-07-05 04:00:00,
2013-07-04 23:53:00,81.0,74.0,-100.00,SSE,164,6.0,-999.0,79,-99.99,,,-99.99,0.000000,,2013-07-05 04:53:00,